Regional Weather Roundup
Issued by NWS

Home | Current Version | Previous Version | Text Only | Print | Product List | Glossary Off
Versions: 1 2 3 4 5 6 7 8 9 10 11 12 13 14 15 16 17 18 19 20 21 22 23 24 25 26 27 28 29 30 31 32 33 34 35 36 37 38 39 40 41 42 43 44 45 46 47 48 49 50

000
ASUS43 KBIS 061602
RWRND

NORTH DAKOTA REGIONAL WEATHER ROUNDUP
NATIONAL WEATHER SERVICE BISMARCK ND
1000 AM CST SAT FEB 06 2016

NOTE: "FAIR" INDICATES FEW OR NO CLOUDS BELOW 12,000 FEET WITH NO
SIGNIFICANT WEATHER AND/OR OBSTRUCTIONS TO VISIBILITY.


NDZ001>003-009>011-017-061700-
NORTHWEST NORTH DAKOTA

CITY           SKY/WX    TMP DP  RH WIND       PRES   REMARKS
WILLISTON      CLOUDY    40  28  62 SW7       29.71F
MINOT          CLOUDY    44  26  49 SW14      29.66F
MINOT AFB      CLOUDY    41  30  63 SW8G18    29.65F
$$

NDZ018>021-031>035-040>046-061700-
SOUTHWEST NORTH DAKOTA

CITY           SKY/WX    TMP DP  RH WIND       PRES   REMARKS
BISMARCK       CLOUDY    42  26  53 SW8       29.80F
DICKINSON      CLOUDY    38  21  50 W16       29.79F
GARRISON         N/A     39  26  59 W17       29.70F
HETTINGER ARPT CLOUDY    38  20  48 W15       29.86F
$$

NDZ004>008-012>016-024-026-027-054-061700-
NORTHEAST NORTH DAKOTA

CITY           SKY/WX    TMP DP  RH WIND       PRES   REMARKS
GRAND FORKS    CLOUDY    27  22  81 S13       29.78F WCI  16
GRND FRKS AFB  CLOUDY    27  23  83 S9        29.76F WCI  18
DEVILS LAKE    CLOUDY    33  26  75 SW12      29.71F
$$

NDZ022-023-025-028>030-036>039-047>053-061700-
SOUTHEAST NORTH DAKOTA

CITY           SKY/WX    TMP DP  RH WIND       PRES   REMARKS
FARGO          CLOUDY    29  23  78 S10       29.84F WCI  20
JAMESTOWN      CLOUDY    36  25  64 SW12      29.77F
$$




USA.gov is the U.S. government's official web portal to all federal, state and local government web resources and services.